Regional Weather Roundup
Issued by NWS

Home | Current Version | Previous Version | Text Only | Print | Product List | Glossary On
Versions: 1 2 3 4 5 6 7 8 9 10 11 12 13 14 15 16 17 18 19 20 21 22 23 24 25 26 27 28 29 30 31 32 33 34 35 36 37 38 39 40 41 42 43 44 45 46 47 48 49 50
000
ASUS44 KFWD 230715
RWRTX
NORTH TEXAS HOURLY WEATHER ROUNDUP
NATIONAL WEATHER SERVICE FORT WORTH TX
200 AM CDT WED APR 23 2014

NOTE: "FAIR" INDICATES FEW OR NO CLOUDS BELOW 12,000 FEET WITH NO
SIGNIFICANT WEATHER AND/OR OBSTRUCTIONS TO VISIBILITY.

TXZ118-119-230800-
DALLAS/FORT WORTH METROPLEX

CITY           SKY/WX    TMP DP  RH WIND       PRES   REMARKS
DFW AIRPORT    CLEAR     67  56  67 SE3       29.93F
DALLAS LOVE    CLEAR     65  56  72 SE6       29.93F
FTW MEACHAM    CLEAR     65  57  75 SE5       29.93F
DAL-EXECUTIVE  CLEAR     62  58  86 CALM      29.93F
FTW-ALLIANCE   PTCLDY    61  55  81 CALM      29.93F
FTW-NAS-JRB    CLEAR     67  59  75 CALM      29.97F
FTW-SPINKS     CLEAR     60  57  89 CALM      29.95F
ARLINGTON      CLEAR     58  56  93 CALM      29.94S
GRAND PRAIRIE  CLEAR     66  55  68 CALM      29.96F
ADDISON        CLEAR     68  54  60 CALM      29.96S
MESQUITE       CLEAR     60  56  89 CALM      29.94F
LANCASTER      CLEAR     59  56  91 CALM      29.95F
$$

TXZ091>094-102>105-117-120-121-131>134-230800-
NORTH CENTRAL TEXAS

CITY           SKY/WX    TMP DP  RH WIND       PRES   REMARKS
SHRMAN/DENISON CLEAR     62  46  57 E3        29.95F
GAINESVILLE    CLEAR     58  51  77 CALM      29.96F
BOWIE          CLEAR     59  53  79 CALM      29.94F
BRIDGEPORT     CLEAR     57  55  95 CALM      29.96S
DECATUR        CLEAR     64  53  68 SE5       29.94F
DENTON         CLEAR     60  56  86 CALM      29.94F
MCKINNEY       CLEAR     57  55  93 CALM      29.94F
GREENVILLE     CLEAR     57  54  88 CALM      29.94F
ROCKWALL       CLEAR     61  53  73 E5        29.93F
TERRELL        CLEAR     61  60  97 CALM      29.95S
WAXAHACHIE     CLEAR     59  57  93 CALM      29.95F
CLEBURNE       CLEAR     63  57  82 CALM      29.96F
GRANBURY       CLEAR     61  56  84 CALM      29.96S
$$

TXZ083>090-098>101-113>116-127>130-139>142-154-155-230800-
WESTERN NORTH TEXAS

CITY           SKY/WX    TMP DP  RH WIND       PRES   REMARKS
WICHITA FALLS  CLEAR     60  55  83 S7        29.92F
WF-KICKAPOO    CLEAR     61  55  81 SE6       29.93F
VERNON         CLEAR     63  55  73 SE8       29.91F
ABILENE        CLEAR     65  49  56 S14       29.93F
ABILENE-DYESS  CLEAR     64  49  58 S14       29.93F
BRECKENRIDGE   CLEAR     65  52  62 SE8       29.93S
GRAHAM         CLEAR     62  53  71 SE3       29.93S
MINERAL WELLS  CLEAR     61  55  81 SE8       29.93S
STEPHENVILLE   CLEAR     63  54  72 SE3       29.98F
COMANCHE       CLEAR     60  52  74 S7        29.96S
BROWNWOOD      PTCLDY    55  50  82 W3        29.95F
COLEMAN        CLEAR     63  51  66 SE6       29.96S
BRADY          CLEAR     63  52  67 SE5       29.96S
$$

TXZ143>147-156>162-174-175-230800-
CENTRAL TEXAS

CITY           SKY/WX    TMP DP  RH WIND       PRES   REMARKS
WACO           CLEAR     61  56  83 S3        29.94F
WACO-MCGREGOR  CLEAR     57  50  77 SW3       29.96F
HILLSBORO      CLEAR     66  55  69 E8        29.94F
CORSICANA      CLEAR     62  56  80 S3        29.96S
MEXIA          CLEAR     65  58  78 CALM      29.94S
HEARNE         CLEAR     60  58  91 CALM      29.95S
CAMERON        CLEAR     62  60  92 CALM      29.94S
TEMPLE         CLEAR     64  54  68 E5        29.97F
KILLEEN        CLEAR     63  55  77 E7        29.95F
KILLEEN-SKYLRK CLEAR    N/A N/A N/A E5        29.93S
FORT HOOD      CLEAR     66  58  75 CALM      29.94F
GATESVILLE     CLEAR     63  57  82 CALM      29.97F
HAMILTON       CLEAR     60  52  76 SE9       29.97F
LAMPASAS       CLEAR     60  56  89 CALM      29.95F
$$

TXZ095>097-106>112-122>126-135>138-148>153-164>167-230800-
EAST TEXAS

CITY           SKY/WX    TMP DP  RH WIND       PRES   REMARKS
PARIS          CLEAR     61  48  63 NE6       29.95F
SULPHUR SPRNGS CLEAR     60  55  83 CALM      29.96F
CLARKSVILLE    CLEAR     59  53  82 CALM      29.95F
MOUNT PLEASANT CLEAR     59  59 100 CALM      29.95F
GILMER         DRIZZLE   61  59  94 CALM      29.96F
MINEOLA        CLEAR     59  57  94 CALM      29.96S
TYLER          CLEAR     63  56  78 CALM      29.94F
LONGVIEW       CLEAR     60  57  89 CALM      29.94F
MARSHALL       CLEAR     58  56  92 CALM      29.96F
ATHENS         CLEAR     59  55  88 CALM      29.94F
PALESTINE      CLEAR     59  55  87 CALM      29.97S
JACKSONVILLE   CLEAR     65  56  71 CALM      29.97S
HENDERSON      CLEAR     58  56  93 CALM      29.96S
NACOGDOCHES    CLEAR     55  52  88 CALM      29.96S
LUFKIN         CLEAR     63  58  83 CALM      29.95S
$$

SUPPLEMENTAL OBSERVATIONS (CENTRAL)

CITY           SKY/WX    TMP DP  RH WIND       PRES   REMARKS
LAKE TEXOMA      N/A     57  55  94 E5          N/A
CADDO GRASSLND   N/A     54  50  87 CALM        N/A
PAT MAYSE LAKE   N/A     57  52  82 CALM        N/A
ATHENS           N/A     61  59  94 CALM        N/A
LAKE LIMESTONE   N/A     63  59  88 NE2         N/A
MCGREGOR         N/A     64  57  77 E1          N/A
$$

SUPPLEMENTAL OBSERVATIONS (WEST)

CITY           SKY/WX    TMP DP  RH WIND       PRES   REMARKS
MILLERS CREEK    N/A     63  48  59 SE6         N/A
LBJ GRASSLAND    N/A     64  50  59 E6          N/A
COMANCHE         N/A     63  54  72 SE8         N/A
HAMBY            N/A     64  48  55 SE8         N/A
IVIE RESERVOIR   N/A     63  48  59 E6          N/A
COLORADO BEND    N/A     63  55  77 SE3         N/A
$$

SUPPLEMENTAL OBSERVATIONS (EAST)

CITY           SKY/WX    TMP DP  RH WIND       PRES   REMARKS
CLARKSVILLE      N/A     61  46  59 NE1         N/A
TEXARKANA        N/A     54  52  94 CALM        N/A
LINDEN           N/A     57  54  88 CALM        N/A
CADDO LAKE       N/A     55  54  94 CALM        N/A
GILMER           N/A     57  55  94 CALM        N/A
HENDERSON        N/A     57  55  94 CALM        N/A
LUFKIN           N/A     59  57  94 MISG        N/A
N SABINE NF      N/A     57  55  94 MISG        N/A
S SABINE NF      N/A     61  59  94 CALM        N/A
$$

SUPPLEMENTAL OBSERVATIONS ARE A COLLECTION OF AUTOMATED INSTRUMENTS
THAT ARE MAINTAINED BY A VARIETY OF FEDERAL AND STATE AGENCIES.
CERTAIN ELEMENTS...SUCH AS HUMIDITY VALUES AND SUSTAINED WIND
SPEEDS...MAY BE APPROXIMATED.




USA.gov is the U.S. government's official web portal to all federal, state and local government web resources and services.